Weather History for Caldwell, ID

Change the Weather History Date:

Wednesday, April 2, 2014

  Actual Average (KBOI) Record (KBOI)
Temperature  
Mean Temperature 45 °F 48 °F  
Max Temperature 55 °F 59 °F 79 °F (1943)
Min Temperature 35 °F 37 °F 20 °F (1976)
Degree Days  
Heating Degree Days 20 17  
Month to date heating degree days 34  
Since 1 July heating degree days 4829  
Cooling Degree Days 0 0  
Month to date cooling degree days 0  
Year to date cooling degree days 0  
Moisture  
Dew Point 29 °F    
Average Humidity 60    
Maximum Humidity 75    
Minimum Humidity 35    
Precipitation  
Precipitation 0.16 in 0.04 in 0.56 in (1901)
Month to date precipitation 0.08  
Year to date precipitation 3.70  
Snow  
Snow 0.00 in 0.00 in 1.40 in (1920)
Month to date snowfall 0.0  
Since 1 July snowfall 18.9  
Snow Depth -    
Sea Level Pressure  
Sea Level Pressure 29.88 in    
Wind  
Wind Speed 7 mph (NW)    
Max Wind Speed 17 mph    
Max Gust Speed 22 mph    
Visibility 10 miles    
Events      
T = Trace of Precipitation, MM = Missing Value Source: NWS Daily Summary

Daily Weather History Graph

Daily Weather History Graph

Search for Another Location

Airport:

Trip Planner

Search our weather history database for the weather conditions in past years. The results will help you decide how hot, cold, wet, or windy it might be!

Date:

Astronomy

Apr. 02, 2014 Rise Set
Actual Time 7:26 AM MDT 8:14 PM MDT
Civil Twilight 6:57 AM MDT 8:43 PM MDT
Nautical Twilight 6:22 AM MDT 9:18 PM MDT
Astronomical Twilight 5:46 AM MDT 9:54 PM MDT
Moon 9:08 AM MDT (4/2) 11:48 PM MDT (4/2)
Length of Visible Light 13h 46m
Length of Day
12h 48m
Waxing Crescent, 10% of the Moon is Illuminated
Apr 2
Waxing Crescent
Apr 7
First Quarter
Apr 15
Full
Apr 22
Last Quarter
Apr 29
New

Hourly Weather History & Observations

Time (MDT) Temp. Windchill Dew Point Humidity Pressure Visibility Wind Dir Wind Speed Gust Speed Precip Events Conditions
12:15 AM 37.4 °F 32.1 °F 28.4 °F 70% 29.79 in 10.0 mi SE 6.9 mph - 0.02 in   Overcast
12:35 AM 37.4 °F 31.4 °F 28.4 °F 70% 29.79 in 10.0 mi SSE 8.1 mph - 0.05 in   Overcast
12:55 AM 35.6 °F 29.2 °F 28.4 °F 75% 29.79 in 10.0 mi ESE 8.1 mph - 0.07 in   Overcast
1:15 AM 35.6 °F 30.7 °F 26.6 °F 70% 29.79 in 10.0 mi SE 5.8 mph - 0.02 in   Overcast
1:35 AM 35.6 °F 31.7 °F 28.4 °F 75% 29.79 in 10.0 mi ESE 4.6 mph - 0.03 in   Overcast
1:55 AM 35.6 °F 30.7 °F 26.6 °F 70% 29.79 in 10.0 mi ESE 5.8 mph - 0.04 in   Overcast
2:15 AM 35.6 °F 29.9 °F 28.4 °F 75% 29.79 in 10.0 mi SE 6.9 mph - 0.01 in   Overcast
2:35 AM 35.6 °F 31.7 °F 28.4 °F 75% 29.79 in 10.0 mi SSE 4.6 mph - 0.02 in   Overcast
4:55 AM 35.6 °F - 28.4 °F 75% 29.79 in 10.0 mi Calm Calm - N/A   Overcast
5:15 AM 35.6 °F 32.8 °F 28.4 °F 75% 29.79 in 10.0 mi South 3.5 mph - N/A   Overcast
6:55 AM 35.6 °F - 26.6 °F 70% 29.81 in 10.0 mi Calm Calm - 0.03 in   Overcast
7:15 AM 35.6 °F - 26.6 °F 70% 29.82 in 10.0 mi Calm Calm - N/A   Overcast
7:35 AM 35.6 °F - 26.6 °F 70% 29.83 in 10.0 mi Calm Calm - N/A   Overcast
7:55 AM 35.6 °F - 28.4 °F 75% 29.83 in 10.0 mi Calm Calm - N/A   Overcast
8:15 AM 35.6 °F - 28.4 °F 75% 29.84 in 10.0 mi Calm Calm - N/A   Overcast
8:35 AM 35.6 °F 32.8 °F 28.4 °F 75% 29.85 in 10.0 mi North 3.5 mph - N/A   Overcast
8:55 AM 35.6 °F 31.7 °F 28.4 °F 75% 29.86 in 10.0 mi North 4.6 mph - N/A   Overcast
9:15 AM 35.6 °F 30.7 °F 28.4 °F 75% 29.86 in 10.0 mi NNW 5.8 mph - N/A   Overcast
9:35 AM 35.6 °F 30.7 °F 28.4 °F 75% 29.86 in 10.0 mi NNW 5.8 mph - N/A   Overcast
9:55 AM 37.4 °F 32.1 °F 28.4 °F 70% 29.87 in 10.0 mi NW 6.9 mph - N/A   Overcast
10:15 AM 37.4 °F 32.1 °F 30.2 °F 75% 29.88 in 10.0 mi WNW 6.9 mph - N/A   Overcast
10:35 AM 37.4 °F 31.4 °F 30.2 °F 75% 29.88 in 10.0 mi NW 8.1 mph - N/A   Overcast
10:55 AM 37.4 °F 33.8 °F 30.2 °F 75% 29.89 in 10.0 mi NW 4.6 mph - N/A   Overcast
11:15 AM 39.2 °F 34.2 °F 30.2 °F 70% 29.90 in 10.0 mi NW 6.9 mph - N/A   Overcast
11:55 AM 41.0 °F 36.4 °F 32.0 °F 70% 29.91 in 10.0 mi NW 6.9 mph - N/A   Overcast
12:15 PM 41.0 °F 37.1 °F 32.0 °F 70% 29.91 in 10.0 mi NNW 5.8 mph - N/A   Mostly Cloudy
12:35 PM 42.8 °F 38.0 °F 33.8 °F 70% 29.91 in 10.0 mi North 8.1 mph - N/A   Mostly Cloudy
12:55 PM 44.6 °F 40.7 °F 33.8 °F 66% 29.91 in 10.0 mi North 6.9 mph - N/A   Overcast
1:15 PM 44.6 °F 39.7 °F 33.8 °F 66% 29.91 in 10.0 mi NNW 9.2 mph - N/A   Mostly Cloudy
1:35 PM 46.4 °F 43.5 °F 35.6 °F 66% 29.91 in 10.0 mi NNE 5.8 mph - N/A   Scattered Clouds
1:55 PM 48.2 °F - 35.6 °F 62% 29.90 in 10.0 mi North 9.2 mph - N/A   Scattered Clouds
2:15 PM 48.2 °F - 37.4 °F 66% 29.90 in 10.0 mi North 9.2 mph - N/A   Partly Cloudy
2:35 PM 50.0 °F - 37.4 °F 62% 29.90 in 10.0 mi North 4.6 mph - N/A   Scattered Clouds
2:55 PM 51.8 °F - 37.4 °F 58% 29.89 in 10.0 mi WNW 9.2 mph 17.3 mph N/A   Partly Cloudy
3:15 PM 53.6 °F - 35.6 °F 51% 29.89 in 10.0 mi NNW 10.4 mph 16.1 mph N/A   Partly Cloudy
3:35 PM 53.6 °F - 35.6 °F 51% 29.89 in 10.0 mi NNW 12.7 mph 16.1 mph N/A   Mostly Cloudy
3:55 PM 55.4 °F - 30.2 °F 38% 29.88 in 10.0 mi NW 12.7 mph 18.4 mph N/A   Mostly Cloudy
4:15 PM 53.6 °F - 30.2 °F 41% 29.88 in 10.0 mi WNW 11.5 mph 19.6 mph N/A   Partly Cloudy
4:35 PM 55.4 °F - 30.2 °F 38% 29.88 in 10.0 mi NNW 10.4 mph - N/A   Partly Cloudy
4:55 PM 53.6 °F - 28.4 °F 38% 29.88 in 10.0 mi NW 11.5 mph 17.3 mph N/A   Partly Cloudy
5:15 PM 53.6 °F - 28.4 °F 38% 29.88 in 10.0 mi NW 15.0 mph 18.4 mph N/A   Scattered Clouds
5:35 PM 55.4 °F - 28.4 °F 36% 29.89 in 10.0 mi NW 13.8 mph - N/A   Scattered Clouds
5:55 PM 53.6 °F - 26.6 °F 35% 29.89 in 10.0 mi NW 9.2 mph - N/A   Clear
6:15 PM 53.6 °F - 28.4 °F 38% 29.89 in 10.0 mi NW 17.3 mph 21.9 mph N/A   Clear
6:35 PM 53.6 °F - 26.6 °F 35% 29.89 in 10.0 mi NW 15.0 mph - N/A   Clear
6:55 PM 53.6 °F - 26.6 °F 35% 29.90 in 10.0 mi NW 13.8 mph - N/A   Clear
7:15 PM 51.8 °F - 26.6 °F 38% 29.90 in 10.0 mi NNW 12.7 mph - N/A   Clear
7:35 PM 51.8 °F - 26.6 °F 38% 29.91 in 10.0 mi NNW 10.4 mph - N/A   Clear
7:55 PM 51.8 °F - 26.6 °F 38% 29.91 in 10.0 mi NNW 9.2 mph - N/A   Clear
8:15 PM 48.2 °F - 26.6 °F 43% 29.92 in 10.0 mi NW 5.8 mph - N/A   Clear
8:35 PM 46.4 °F 43.5 °F 26.6 °F 46% 29.93 in 10.0 mi NW 5.8 mph - N/A   Clear
8:55 PM 46.4 °F 42.9 °F 26.6 °F 46% 29.94 in 10.0 mi WNW 6.9 mph - N/A   Clear
9:15 PM 44.6 °F 40.2 °F 26.6 °F 49% 29.94 in 10.0 mi WNW 8.1 mph - N/A   Clear
9:35 PM 42.8 °F 37.5 °F 26.6 °F 53% 29.95 in 10.0 mi WNW 9.2 mph - N/A   Clear
10:15 PM 42.8 °F 39.3 °F 26.6 °F 53% 29.96 in 10.0 mi WNW 5.8 mph - N/A   Clear
10:35 PM 41.0 °F 39.0 °F 26.6 °F 57% 29.97 in 10.0 mi NE 3.5 mph - N/A   Clear
10:55 PM 41.0 °F 39.0 °F 26.6 °F 57% 29.97 in 10.0 mi NNW 3.5 mph - N/A   Clear
11:15 PM 42.8 °F 37.5 °F 26.6 °F 53% 29.97 in 10.0 mi NW 9.2 mph - N/A   Clear
11:35 PM 41.0 °F 36.4 °F 26.6 °F 57% 29.99 in 10.0 mi NW 6.9 mph - N/A   Clear
11:55 PM 39.2 °F 34.2 °F 26.6 °F 61% 29.99 in 10.0 mi WNW 6.9 mph - N/A   Clear